When you browse on this site, cookies collect data to enhance your experience and personalize the content and advertising you see.
Visit our Privacy Policy to learn more. By continuing to use the site, you agree to this use of cookies and data.

Meteo orario Pshonkino

Oggi, 3 Agosto, Lunedi

Tempo Temperatura Precipitazioni Vento Pressione Umidità
00:00 +14°C° 0 mm 2 m/s 751 mm Hg 81%
01:00 +13°C° 0 mm 2 m/s 751 mm Hg 82%
02:00 +13°C° 0 mm 2 m/s 751 mm Hg 86%
03:00 +13°C° 0 mm 2 m/s 751 mm Hg 87%
04:00 +12°C° 0 mm 2 m/s 751 mm Hg 88%
05:00 +12°C° 0 mm 2 m/s 751 mm Hg 90%
06:00 +14°C° 0 mm 2 m/s 751 mm Hg 84%
07:00 +14°C° 0 mm 3 m/s 751 mm Hg 79%
08:00 +17°C° 0 mm 3 m/s 751 mm Hg 73%
09:00 +19°C° 0 mm 3 m/s 751 mm Hg 68%
10:00 +20°C° 0 mm 3 m/s 751 mm Hg 63%
11:00 +22°C° 0 mm 3 m/s 751 mm Hg 57%
12:00 +24°C° 0 mm 3 m/s 751 mm Hg 55%
13:00 +24°C° 0 mm 3 m/s 751 mm Hg 53%
14:00 +25°C° 0 mm 3 m/s 751 mm Hg 51%
15:00 +25°C° 0.1 mm 2 m/s 751 mm Hg 57%
16:00 +24°C° 0.1 mm 2 m/s 751 mm Hg 62%
17:00 +23°C° 0.1 mm 2 m/s 750 mm Hg 68%
18:00 +22°C° 0 mm 1 m/s 750 mm Hg 73%
19:00 +21°C° 0 mm 1 m/s 750 mm Hg 78%
20:00 +19°C° 0 mm 1 m/s 750 mm Hg 83%
21:00 +19°C° 0 mm 1 m/s 750 mm Hg 85%
22:00 +18°C° 0 mm 1 m/s 750 mm Hg 86%
23:00 +17°C° 0 mm 2 m/s 750 mm Hg 88%

Domani, 4 Agosto, Martedi

Tempo Temperatura Precipitazioni Vento Pressione Umidità
00:00 +17°C° 0 mm 2 m/s 751 mm Hg 88%
01:00 +17°C° 0 mm 2 m/s 751 mm Hg 88%
02:00 +17°C° 0 mm 2 m/s 751 mm Hg 88%
03:00 +17°C° 0.1 mm 2 m/s 751 mm Hg 90%
04:00 +17°C° 0.1 mm 2 m/s 751 mm Hg 92%
05:00 +16°C° 0.1 mm 2 m/s 751 mm Hg 94%
06:00 +17°C° 0 mm 3 m/s 751 mm Hg 90%
07:00 +18°C° 0 mm 3 m/s 751 mm Hg 86%
08:00 +19°C° 0 mm 3 m/s 751 mm Hg 82%
09:00 +21°C° 0 mm 4 m/s 751 mm Hg 74%
10:00 +22°C° 0 mm 4 m/s 751 mm Hg 66%
11:00 +25°C° 0 mm 5 m/s 751 mm Hg 57%
12:00 +25°C° 0 mm 5 m/s 750 mm Hg 56%
13:00 +26°C° 0 mm 4 m/s 750 mm Hg 55%
14:00 +26°C° 0 mm 4 m/s 750 mm Hg 53%
15:00 +26°C° 0 mm 4 m/s 750 mm Hg 56%
16:00 +26°C° 0 mm 3 m/s 750 mm Hg 58%
17:00 +26°C° 0 mm 3 m/s 750 mm Hg 60%
18:00 +24°C° 0.5 mm 3 m/s 750 mm Hg 71%
19:00 +21°C° 0.5 mm 3 m/s 750 mm Hg 82%
20:00 +19°C° 0.5 mm 3 m/s 750 mm Hg 92%
21:00 +19°C° 0.7 mm 2 m/s 750 mm Hg 94%
22:00 +19°C° 0.7 mm 2 m/s 750 mm Hg 96%
23:00 +19°C° 0.7 mm 2 m/s 750 mm Hg 97%

Dopodomani, 5 Agosto, Mercoledi

Tempo Temperatura Precipitazioni Vento Pressione Umidità
00:00 +19°C° 0.2 mm 2 m/s 750 mm Hg 96%
01:00 +19°C° 0.2 mm 2 m/s 750 mm Hg 96%
02:00 +19°C° 0.2 mm 3 m/s 750 mm Hg 95%
03:00 +19°C° 0.5 mm 3 m/s 751 mm Hg 95%
04:00 +19°C° 0.5 mm 3 m/s 751 mm Hg 96%
05:00 +18°C° 0.5 mm 3 m/s 751 mm Hg 97%
06:00 +19°C° 0.1 mm 2 m/s 752 mm Hg 96%
07:00 +19°C° 0.1 mm 2 m/s 752 mm Hg 96%
08:00 +19°C° 0.1 mm 2 m/s 753 mm Hg 96%
09:00 +19°C° 0.1 mm 2 m/s 753 mm Hg 94%
10:00 +19°C° 0.1 mm 2 m/s 754 mm Hg 93%
11:00 +20°C° 0.1 mm 2 m/s 754 mm Hg 91%
12:00 +21°C° 0.1 mm 2 m/s 755 mm Hg 84%
13:00 +23°C° 0.1 mm 2 m/s 755 mm Hg 77%
14:00 +24°C° 0.1 mm 2 m/s 755 mm Hg 71%
15:00 +24°C° 0.1 mm 1 m/s 755 mm Hg 69%
16:00 +24°C° 0.1 mm 1 m/s 756 mm Hg 67%
17:00 +24°C° 0.1 mm 1 m/s 756 mm Hg 65%
18:00 +22°C° 0 mm 1 m/s 756 mm Hg 70%
19:00 +21°C° 0 mm 1 m/s 756 mm Hg 75%
20:00 +17°C° 0 mm 0 m/s 757 mm Hg 79%
21:00 +16°C° 0 mm 0 m/s 757 mm Hg 80%
22:00 +16°C° 0 mm 0 m/s 757 mm Hg 81%
23:00 +15°C° 0 mm 0 m/s 758 mm Hg 83%

6 Agosto, Giovedi

Tempo Temperatura Precipitazioni Vento Pressione Umidità
00:00 +15°C° 0 mm 1 m/s 758 mm Hg 84%
01:00 +15°C° 0 mm 1 m/s 758 mm Hg 85%
02:00 +14°C° 0 mm 1 m/s 758 mm Hg 86%
03:00 +14°C° 0 mm 1 m/s 759 mm Hg 86%
04:00 +14°C° 0 mm 1 m/s 759 mm Hg 87%
05:00 +14°C° 0 mm 1 m/s 759 mm Hg 88%
06:00 +15°C° 0 mm 1 m/s 760 mm Hg 81%
07:00 +18°C° 0 mm 1 m/s 760 mm Hg 75%
08:00 +19°C° 0 mm 2 m/s 760 mm Hg 68%
09:00 +20°C° 0 mm 2 m/s 760 mm Hg 63%
10:00 +23°C° 0 mm 2 m/s 760 mm Hg 57%
11:00 +24°C° 0 mm 2 m/s 761 mm Hg 51%
12:00 +24°C° 0 mm 2 m/s 761 mm Hg 49%
13:00 +25°C° 0 mm 2 m/s 761 mm Hg 47%
14:00 +25°C° 0 mm 3 m/s 761 mm Hg 45%
15:00 +25°C° 0 mm 3 m/s 760 mm Hg 47%
16:00 +24°C° 0 mm 2 m/s 760 mm Hg 48%
17:00 +24°C° 0 mm 2 m/s 760 mm Hg 50%
18:00 +21°C° 0 mm 2 m/s 761 mm Hg 58%
19:00 +19°C° 0 mm 2 m/s 761 mm Hg 65%
20:00 +17°C° 0 mm 2 m/s 761 mm Hg 73%
21:00 +16°C° 0 mm 1 m/s 761 mm Hg 75%
22:00 +16°C° 0 mm 1 m/s 762 mm Hg 77%
23:00 +15°C° 0 mm 1 m/s 762 mm Hg 79%

7 Agosto, Venerdi

Tempo Temperatura Precipitazioni Vento Pressione Umidità
00:00 +14°C° 0 mm 1 m/s 762 mm Hg 80%
01:00 +14°C° 0 mm 1 m/s 762 mm Hg 82%
02:00 +14°C° 0 mm 1 m/s 762 mm Hg 83%
03:00 +13°C° 0 mm 1 m/s 762 mm Hg 82%
04:00 +13°C° 0 mm 1 m/s 763 mm Hg 82%
05:00 +13°C° 0 mm 1 m/s 763 mm Hg 81%
06:00 +15°C° 0 mm 1 m/s 763 mm Hg 76%
07:00 +18°C° 0 mm 1 m/s 763 mm Hg 71%
08:00 +20°C° 0 mm 1 m/s 763 mm Hg 66%
09:00 +20°C° 0 mm 2 m/s 763 mm Hg 62%
10:00 +21°C° 0 mm 2 m/s 763 mm Hg 58%
11:00 +24°C° 0 mm 2 m/s 763 mm Hg 54%
12:00 +24°C° 0 mm 2 m/s 762 mm Hg 54%
13:00 +24°C° 0 mm 2 m/s 762 mm Hg 54%
14:00 +25°C° 0 mm 2 m/s 762 mm Hg 54%
15:00 +25°C° 0.1 mm 2 m/s 762 mm Hg 55%
16:00 +24°C° 0.1 mm 2 m/s 762 mm Hg 57%
17:00 +24°C° 0.1 mm 2 m/s 762 mm Hg 58%
18:00 +21°C° 0 mm 2 m/s 762 mm Hg 65%
19:00 +20°C° 0 mm 2 m/s 762 mm Hg 72%
20:00 +19°C° 0 mm 1 m/s 761 mm Hg 79%
21:00 +18°C° 0 mm 1 m/s 762 mm Hg 81%
22:00 +16°C° 0 mm 1 m/s 762 mm Hg 83%
23:00 +16°C° 0 mm 1 m/s 762 mm Hg 84%

8 Agosto, Sabato

Tempo Temperatura Precipitazioni Vento Pressione Umidità
00:00 +16°C° 0 mm 1 m/s 762 mm Hg 84%
01:00 +16°C° 0 mm 1 m/s 762 mm Hg 83%
02:00 +16°C° 0 mm 1 m/s 762 mm Hg 83%
03:00 +16°C° 0 mm 1 m/s 762 mm Hg 81%
04:00 +16°C° 0 mm 1 m/s 761 mm Hg 80%
05:00 +17°C° 0 mm 2 m/s 761 mm Hg 78%
06:00 +17°C° 0 mm 2 m/s 761 mm Hg 78%
07:00 +18°C° 0 mm 2 m/s 761 mm Hg 78%
08:00 +18°C° 0 mm 2 m/s 761 mm Hg 78%
09:00 +19°C° 0 mm 2 m/s 761 mm Hg 73%
10:00 +21°C° 0 mm 2 m/s 761 mm Hg 68%
11:00 +23°C° 0 mm 2 m/s 761 mm Hg 63%
12:00 +24°C° 0 mm 2 m/s 761 mm Hg 59%
13:00 +25°C° 0 mm 2 m/s 760 mm Hg 55%
14:00 +26°C° 0 mm 2 m/s 760 mm Hg 51%
15:00 +25°C° 0 mm 2 m/s 760 mm Hg 53%
16:00 +25°C° 0 mm 2 m/s 760 mm Hg 55%
17:00 +25°C° 0 mm 2 m/s 760 mm Hg 57%
18:00 +23°C° 0 mm 2 m/s 759 mm Hg 62%
19:00 +21°C° 0 mm 2 m/s 759 mm Hg 67%
20:00 +19°C° 0 mm 2 m/s 759 mm Hg 72%
21:00 +18°C° 0 mm 2 m/s 759 mm Hg 72%
22:00 +19°C° 0 mm 1 m/s 760 mm Hg 72%
23:00 +18°C° 0 mm 1 m/s 760 mm Hg 73%
Mostrare altro